DW8673 Jerrabomberra AU current weather conditions

sailwx.info

Wind from 077 at 1 knots gusting 4

Air temperature 28.9° C
Dewpoint 10.0° C

Last reported at 2016-Feb-12 23:43 UTC.
Time now 2016-Feb-13 00:28 UTC

Location: S 35°23' E 149°12'.
View on Google Maps.

See reports from other nearby stations

  
Tides and Currents Weather Stations Pressure Air Temp Water Temp Dewpoint Dewpoint Depression Visibility Wind Speed Wind Dir Waves Ship Positions
date/time (UTC)wind fromknots sea level pressurealtimeterstation pressurevisibilityair tempwater tempwave heightnotes
2016-Feb-12 23:43 077 1 gusting 4 28.9
2016-Feb-12 23:38 267 1 gusting 4 28.9
2016-Feb-12 23:33 312 1 gusting 4 28.3
2016-Feb-12 23:18 279 1 gusting 2 28.3
2016-Feb-12 23:13 259 1 gusting 2 28.3
2016-Feb-12 23:08 133 0 gusting 1 27.8
2016-Feb-12 23:03 256 0 gusting 2 27.2
2016-Feb-12 22:48 287 0 gusting 1 26.7
2016-Feb-12 22:43 225 0 gusting 1 26.1
2016-Feb-12 22:38 110 1 gusting 1 26.1
2016-Feb-12 22:33 177 0 gusting 1 25.6
2016-Feb-12 22:18 104 0 gusting 1 25.0
2016-Feb-12 22:13 050 0 gusting 0 25.0
2016-Feb-12 22:08 329 24.4
2016-Feb-12 22:03 244 0 gusting 1 24.4
2016-Feb-12 21:48 288 0 gusting 1 23.9
2016-Feb-12 21:43 270 23.3
2016-Feb-12 21:38 009 23.3
2016-Feb-12 21:33 199 22.8
2016-Feb-12 21:18 112 22.2
2016-Feb-12 21:13 248 21.7
2016-Feb-12 21:08 292 0 gusting 1 21.1
2016-Feb-12 21:03 308 0 gusting 0 20.6
2016-Feb-12 20:48 270 18.9
2016-Feb-12 20:43 248 18.3
2016-Feb-12 20:38 248 17.8
2016-Feb-12 20:33 248 16.7
2016-Feb-12 20:18 240 16.1
2016-Feb-12 20:13 135 15.6
2016-Feb-12 20:08 135 15.6
2016-Feb-12 20:03 135 15.6
2016-Feb-12 19:48 135 15.6
2016-Feb-12 19:43 135 15.6
2016-Feb-12 19:38 135 15.6
2016-Feb-12 19:33 135 15.6
2016-Feb-12 19:18 135 15.6
2016-Feb-12 19:13 135 15.6
2016-Feb-12 19:08 135 15.6
2016-Feb-12 19:03 135 15.6
2016-Feb-12 18:48 135 16.1
2016-Feb-12 18:43 135 16.1
2016-Feb-12 18:38 135 16.1
2016-Feb-12 18:33 135 16.1
2016-Feb-12 18:18 248 16.1
2016-Feb-12 18:13 069 16.7
2016-Feb-12 18:08 046 16.7
2016-Feb-12 18:03 090 16.7
2016-Feb-12 17:48 270 16.7
2016-Feb-12 17:43 180 16.7
2016-Feb-12 17:38 180 16.7
2016-Feb-12 17:33 153 16.7
2016-Feb-12 17:13 225 16.7
2016-Feb-12 17:08 212 17.2
2016-Feb-12 17:03 303 17.2
2016-Feb-12 16:48 270 17.8
2016-Feb-12 16:43 058 0 gusting 0 17.8
2016-Feb-12 16:38 045 17.8
2016-Feb-12 16:33 112 17.8
2016-Feb-12 16:18 135 17.8
2016-Feb-12 16:13 112 17.8
2016-Feb-12 16:08 112 17.8
2016-Feb-12 16:03 140 17.8
2016-Feb-12 15:48 225 17.8
2016-Feb-12 15:43 225 17.8
2016-Feb-12 15:38 225 17.8
2016-Feb-12 15:33 090 17.8
2016-Feb-12 15:18 225 18.3
2016-Feb-12 15:13 105 18.3
2016-Feb-12 15:08 225 18.3
2016-Feb-12 15:03 225 18.3
2016-Feb-12 14:48 090 18.9
2016-Feb-12 14:43 090 18.9
2016-Feb-12 14:38 090 18.9
2016-Feb-12 14:33 090 19.4
2016-Feb-12 14:18 094 18.9
2016-Feb-12 14:13 090 18.9
2016-Feb-12 14:08 090 19.4
2016-Feb-12 14:03 090 19.4
2016-Feb-12 13:48 112 19.4
2016-Feb-12 13:43 112 20.0
2016-Feb-12 13:38 112 20.0
2016-Feb-12 13:33 135 20.0
2016-Feb-12 13:18 112 20.0
2016-Feb-12 13:13 105 20.0
2016-Feb-12 13:08 090 20.0
2016-Feb-12 13:03 092 20.0
2016-Feb-12 12:48 068 20.0
2016-Feb-12 12:43 068 20.6
2016-Feb-12 12:38 068 20.6
2016-Feb-12 12:33 338 20.6
2016-Feb-12 12:18 096 20.6
2016-Feb-12 12:14 202 20.6
2016-Feb-12 12:08 203 21.1
2016-Feb-12 12:03 225 21.1
2016-Feb-12 11:48 098 0 gusting 1 21.1
2016-Feb-12 11:43 135 0 gusting 0 21.1
2016-Feb-12 11:38 101 21.1
2016-Feb-12 11:33 064 21.1
2016-Feb-12 11:18 292 0 gusting 0 21.7
2016-Feb-12 11:13 136 21.7
2016-Feb-12 11:08 202 21.7
2016-Feb-12 11:03 252 0 gusting 0 22.2
2016-Feb-12 10:48 273 22.2
2016-Feb-12 10:43 351 0 gusting 1 22.8
2016-Feb-12 10:38 012 22.8
2016-Feb-12 10:33 109 0 gusting 2 22.8
2016-Feb-12 10:18 090 0 gusting 1 22.8
2016-Feb-12 10:13 086 0 gusting 1 22.8
2016-Feb-12 10:08 061 1 gusting 2 22.8
2016-Feb-12 10:03 087 0 gusting 2 23.3
2016-Feb-12 09:48 123 1 gusting 4 23.3
2016-Feb-12 09:43 113 1 gusting 1 23.3
2016-Feb-12 09:38 103 1 gusting 2 23.9
2016-Feb-12 09:33 089 1 gusting 4 23.9
2016-Feb-12 09:18 107 0 gusting 4 24.4
2016-Feb-12 09:13 051 1 gusting 5 24.4
2016-Feb-12 09:08 062 2 gusting 4 25.0
2016-Feb-12 09:03 067 1 gusting 5 25.0
2016-Feb-12 08:48 060 1 gusting 5 26.7
2016-Feb-12 08:43 079 1 gusting 4 27.2
2016-Feb-12 08:38 089 1 gusting 4 27.2
2016-Feb-12 08:33 035 1 gusting 2 28.3
2016-Feb-12 08:18 108 1 gusting 2 28.9
2016-Feb-12 08:13 048 1 gusting 1 30.0
2016-Feb-12 08:08 080 1 gusting 2 30.6
2016-Feb-12 08:03 114 1 gusting 4 30.6
2016-Feb-12 07:48 090 1 gusting 1 31.7
2016-Feb-12 07:43 098 0 gusting 1 31.1
2016-Feb-12 07:38 102 0 gusting 2 31.1
2016-Feb-12 07:33 082 0 gusting 4 31.7
2016-Feb-12 07:18 084 1 gusting 2 31.1
2016-Feb-12 07:13 103 1 gusting 2 30.6
2016-Feb-12 07:08 111 1 gusting 2 30.6
2016-Feb-12 07:03 137 2 gusting 5 30.6
2016-Feb-12 06:48 078 2 gusting 6 30.0
2016-Feb-12 06:43 125 2 gusting 4 30.6
2016-Feb-12 06:38 089 1 gusting 4 31.7
2016-Feb-12 06:33 096 1 gusting 6 32.2
2016-Feb-12 06:18 118 1 gusting 2 34.4
2016-Feb-12 06:13 225 0 gusting 1 34.4
2016-Feb-12 06:08 298 1 gusting 4 34.4
2016-Feb-12 06:03 259 2 gusting 4 34.4
2016-Feb-12 05:48 270 1 gusting 5 33.3
2016-Feb-12 05:43 296 1 gusting 5 33.9
2016-Feb-12 05:38 344 3 gusting 5 33.9
2016-Feb-12 05:33 306 2 gusting 6 33.9
2016-Feb-12 05:18 289 1 gusting 4 33.9
2016-Feb-12 05:13 254 1 gusting 4 33.3
2016-Feb-12 05:08 253 1 gusting 5 32.2
2016-Feb-12 05:03 270 1 gusting 5 32.2
2016-Feb-12 04:48 250 2 gusting 4 31.1
2016-Feb-12 04:43 284 2 gusting 6 31.7
2016-Feb-12 04:38 245 1 gusting 5 32.2
2016-Feb-12 04:33 287 2 gusting 5 31.7
2016-Feb-12 04:18 253 2 gusting 6 30.6
2016-Feb-12 04:13 264 1 gusting 5 31.1
2016-Feb-12 04:08 275 1 gusting 4 31.1
2016-Feb-12 04:03 265 1 gusting 5 31.7
2016-Feb-12 03:48 247 1 gusting 4 31.7
2016-Feb-12 03:43 261 1 gusting 4 32.2
2016-Feb-12 03:38 306 0 gusting 2 32.8
2016-Feb-12 03:33 269 2 gusting 5 33.3
2016-Feb-12 03:18 011 1 gusting 4 33.9
2016-Feb-12 03:13 262 2 gusting 5 32.8
2016-Feb-12 03:08 318 2 gusting 5 32.2
2016-Feb-12 03:03 288 1 gusting 5 32.8
2016-Feb-12 02:48 065 1 gusting 2 32.8
2016-Feb-12 02:43 262 1 gusting 4 32.2
2016-Feb-12 02:38 257 2 gusting 5 32.2
2016-Feb-12 02:33 278 2 gusting 4 32.8
2016-Feb-12 02:18 028 0 gusting 2 32.8
2016-Feb-12 02:13 251 1 gusting 2 32.8
2016-Feb-12 02:08 079 2 gusting 5 32.2
2016-Feb-12 02:03 255 1 gusting 4 31.7
2016-Feb-12 01:48 012 1 gusting 4 31.7
2016-Feb-12 01:43 296 2 gusting 5 31.7
2016-Feb-12 01:38 193 0 gusting 1 31.7
2016-Feb-12 01:33 344 2 gusting 4 31.1
2016-Feb-12 01:18 239 2 gusting 2 30.6
2016-Feb-12 01:13 121 0 gusting 2 30.6
2016-Feb-12 01:08 073 1 gusting 4 30.0
2016-Feb-12 01:03 259 1 gusting 4 30.0
2016-Feb-12 00:48 109 1 gusting 5 29.4
2016-Feb-12 00:43 074 0 gusting 2 29.4
2016-Feb-12 00:38 082 1 gusting 1 28.9
2016-Feb-12 00:33 274 1 gusting 4 28.3
2016-Feb-12 00:18 218 0 gusting 2 28.3
2016-Feb-12 00:13 062 1 gusting 2 27.8
2016-Feb-12 00:08 006 0 gusting 1 27.8
2016-Feb-12 00:03 159 1 gusting 2 27.8
2016-Feb-11 23:48 071 0 gusting 1 27.2
2016-Feb-11 23:43 085 0 gusting 2 26.7
2016-Feb-11 23:38 340 1 gusting 1 25.6
2016-Feb-11 23:33 234 1 gusting 1 25.6
2016-Feb-11 23:18 338 0 gusting 1 25.0
2016-Feb-11 23:13 039 1 gusting 4 25.6
2016-Feb-11 23:08 357 1 gusting 4 25.6
2016-Feb-11 23:03 054 1 gusting 2 25.0
2016-Feb-11 22:48 104 0 gusting 2 22.8
2016-Feb-11 22:43 319 0 gusting 2 22.8
2016-Feb-11 22:38 105 0 gusting 1 22.8
2016-Feb-11 22:33 097 1 gusting 2 22.8
2016-Feb-11 22:18 206 0 gusting 1 23.3
2016-Feb-11 22:13 067 0 gusting 1 23.3
2016-Feb-11 22:08 115 1 gusting 2 22.8
2016-Feb-11 22:03 080 0 gusting 4 22.2
2016-Feb-11 21:48 081 0 gusting 1 21.1
2016-Feb-11 21:43 079 0 gusting 1 20.6
2016-Feb-11 21:38 124 0 gusting 2 20.0
2016-Feb-11 21:33 111 0 gusting 4 20.0
2016-Feb-11 21:18 257 19.4
2016-Feb-11 21:13 178 19.4
2016-Feb-11 21:08 068 18.9
2016-Feb-11 21:03 098 18.9
2016-Feb-11 20:48 135 18.3
2016-Feb-11 20:43 270 17.8
2016-Feb-11 20:38 202 17.8
2016-Feb-11 20:33 203 17.8
2016-Feb-11 20:18 202 17.2
2016-Feb-11 20:13 191 17.2
2016-Feb-11 20:08 180 16.7
2016-Feb-11 20:03 270 16.7
2016-Feb-11 19:48 090 16.1
2016-Feb-11 19:43 090 16.1
2016-Feb-11 19:38 090 16.1
2016-Feb-11 19:33 100 16.1
2016-Feb-11 19:18 112 16.1
2016-Feb-11 19:13 112 16.1
2016-Feb-11 19:08 112 16.1
2016-Feb-11 19:03 073 16.1
2016-Feb-11 18:48 090 16.7
2016-Feb-11 18:43 068 16.7
2016-Feb-11 18:38 005 16.7
2016-Feb-11 18:33 338 16.7
2016-Feb-11 18:18 135 17.2
2016-Feb-11 18:13 135 17.2
2016-Feb-11 18:08 132 17.8
2016-Feb-11 18:03 112 17.8
2016-Feb-11 17:48 129 17.8
2016-Feb-11 17:43 17.8
2016-Feb-11 17:38 344 0 gusting 0 17.8
2016-Feb-11 17:33 180 17.8
2016-Feb-11 17:13 292 17.8
2016-Feb-11 17:08 225 17.8
2016-Feb-11 17:03 202 17.8
2016-Feb-11 16:48 090 17.2
2016-Feb-11 16:43 090 17.2
2016-Feb-11 16:38 17.2
2016-Feb-11 16:33 045 17.2
2016-Feb-11 16:18 090 16.7
2016-Feb-11 16:13 068 16.7
2016-Feb-11 16:08 068 16.7
2016-Feb-11 16:03 180 16.7
2016-Feb-11 15:48 090 17.2
2016-Feb-11 15:43 090 17.2
2016-Feb-11 15:38 090 17.2
2016-Feb-11 15:33 090 16.7
2016-Feb-11 15:18 112 17.2
2016-Feb-11 15:13 088 17.2
2016-Feb-11 15:08 276 17.2
2016-Feb-11 15:03 202 17.2
2016-Feb-11 14:48 225 17.8
2016-Feb-11 14:43 204 17.8
2016-Feb-11 14:38 198 0 gusting 0 17.8
2016-Feb-11 14:33 090 18.3
2016-Feb-11 14:18 070 0 gusting 1 18.3
2016-Feb-11 14:13 117 1 gusting 4 18.3
2016-Feb-11 14:08 129 2 gusting 6 18.3
2016-Feb-11 14:03 137 2 gusting 5 18.3
2016-Feb-11 13:48 116 1 gusting 4 17.8
2016-Feb-11 13:43 182 0 gusting 1 17.8
2016-Feb-11 13:38 140 0 gusting 0 17.8
2016-Feb-11 13:33 130 0 gusting 2 17.8
2016-Feb-11 13:18 199 17.8
2016-Feb-11 13:13 179 17.8
2016-Feb-11 13:08 090 17.8
2016-Feb-11 13:03 090 18.3
2016-Feb-11 12:48 135 18.3
2016-Feb-11 12:43 045 18.3
2016-Feb-11 12:38 045 18.3
2016-Feb-11 12:33 045 18.9
2016-Feb-11 12:18 202 0 gusting 1 19.4
2016-Feb-11 12:13 111 1 gusting 2 19.4
2016-Feb-11 12:08 168 0 gusting 1 19.4
2016-Feb-11 12:03 169 0 gusting 2 19.4
2016-Feb-11 11:48 090 20.0
2016-Feb-11 11:43 090 20.0
2016-Feb-11 11:38 098 20.0
2016-Feb-11 11:33 068 20.0
2016-Feb-11 11:18 022 20.0
2016-Feb-11 11:13 090 20.0
2016-Feb-11 11:08 158 20.0
2016-Feb-11 11:03 180 20.0
2016-Feb-11 10:48 202 20.0
2016-Feb-11 10:43 075 20.0
2016-Feb-11 10:38 273 20.0
2016-Feb-11 10:33 135 20.0
2016-Feb-11 10:18 180 20.0
2016-Feb-11 10:13 180 20.0
2016-Feb-11 10:08 090 20.0
2016-Feb-11 10:03 116 0 gusting 2 20.6
2016-Feb-11 09:43 339 0 gusting 2 20.6
2016-Feb-11 09:38 048 0 gusting 1 20.6
2016-Feb-11 09:33 091 1 gusting 4 20.6
2016-Feb-11 09:18 111 1 gusting 4 21.1
2016-Feb-11 09:13 146 1 gusting 6 21.1
2016-Feb-11 09:08 124 2 gusting 6 21.1
2016-Feb-11 09:03 129 2 gusting 6 21.7
2016-Feb-11 08:48 053 1 gusting 2 21.7
2016-Feb-11 08:43 102 2 gusting 7 21.7
2016-Feb-11 08:38 109 2 gusting 4 22.2
2016-Feb-11 08:33 117 1 gusting 4 22.2
2016-Feb-11 08:18 123 2 gusting 5 22.2
2016-Feb-11 08:13 090 0 gusting 2 22.8
2016-Feb-11 08:08 092 0 gusting 1 22.8
2016-Feb-11 08:03 107 1 gusting 4 22.8
2016-Feb-11 07:48 104 1 gusting 5 23.3
2016-Feb-11 07:43 121 0 gusting 5 23.9
2016-Feb-11 07:38 119 1 gusting 5 24.4
2016-Feb-11 07:33 081 1 gusting 6 24.4
2016-Feb-11 07:18 114 4 gusting 7 23.9
2016-Feb-11 07:13 121 3 gusting 7 23.9
2016-Feb-11 07:08 101 4 gusting 7 23.9
2016-Feb-11 07:03 119 1 gusting 6 23.3
2016-Feb-11 06:48 128 1 gusting 4 22.2
2016-Feb-11 06:43 095 3 gusting 5 22.8
2016-Feb-11 06:38 127 2 gusting 5 22.8
2016-Feb-11 06:33 078 1 gusting 5 22.2
2016-Feb-11 06:18 125 1 gusting 4 20.6
2016-Feb-11 06:13 111 2 gusting 4 20.0
2016-Feb-11 06:08 123 2 gusting 2 18.9
2016-Feb-11 06:03 109 1 gusting 10 18.3
2016-Feb-11 05:48 195 4 gusting 6 24.4
2016-Feb-11 05:43 177 3 gusting 6 26.7
2016-Feb-11 05:38 153 4 gusting 7 27.8
2016-Feb-11 05:33 272 3 gusting 6 28.9
2016-Feb-11 05:18 099 2 gusting 5 31.1
2016-Feb-11 05:13 118 2 gusting 5 31.7
2016-Feb-11 05:08 235 2 gusting 4 31.7
2016-Feb-11 05:03 107 2 gusting 6 30.6
2016-Feb-11 04:48 105 1 gusting 4 31.1
2016-Feb-11 04:43 092 2 gusting 5 31.7
2016-Feb-11 04:38 081 2 gusting 4 32.2
2016-Feb-11 04:33 103 3 gusting 6 31.1
2016-Feb-11 04:18 105 0 gusting 5 32.2
2016-Feb-11 04:13 088 1 gusting 5 31.7
2016-Feb-11 04:08 120 1 gusting 5 31.7
2016-Feb-11 04:03 068 1 gusting 4 32.8
2016-Feb-11 03:48 262 1 gusting 2 33.3
2016-Feb-11 03:43 106 1 gusting 4 32.8
2016-Feb-11 03:38 078 2 gusting 5 32.2
2016-Feb-11 03:33 113 3 gusting 7 31.7
2016-Feb-11 03:18 115 1 gusting 6 32.2
2016-Feb-11 03:13 103 2 gusting 4 32.2
2016-Feb-11 03:08 124 1 gusting 4 32.2
2016-Feb-11 03:03 076 1 gusting 6 31.7
2016-Feb-11 02:48 108 2 gusting 5 31.7
2016-Feb-11 02:43 021 0 gusting 6 31.7
2016-Feb-11 02:38 354 2 gusting 5 30.6
2016-Feb-11 02:33 312 1 gusting 5 30.0
2016-Feb-11 02:18 108 1 gusting 4 30.0
2016-Feb-11 02:13 041 1 gusting 6 31.1
2016-Feb-11 02:08 315 0 gusting 1 29.4
2016-Feb-11 02:03 100 1 gusting 2 29.4
2016-Feb-11 01:48 104 1 gusting 2 28.9
2016-Feb-11 01:43 080 1 gusting 4 29.4
2016-Feb-11 01:38 180 1 gusting 2 29.4
2016-Feb-11 01:33 094 0 gusting 2 28.9
2016-Feb-11 01:18 083 0 gusting 1 28.3
2016-Feb-11 01:13 109 1 gusting 2 28.3
2016-Feb-11 01:08 082 1 gusting 4 28.9
2016-Feb-11 01:03 071 1 gusting 6 29.4
2016-Feb-11 00:48 130 1 gusting 2 30.0
2016-Feb-11 00:43 121 0 gusting 2 30.0
2016-Feb-11 00:38 058 0 gusting 1 27.8
2016-Feb-11 00:33 099 0 gusting 2 28.9
2016-Feb-11 00:18 346 1 gusting 4 27.8
2016-Feb-11 00:13 081 0 gusting 2 27.2
2016-Feb-11 00:08 144 1 gusting 4 26.7
2016-Feb-11 00:03 223 0 gusting 2 27.2